Location: Krasnoyarskiy Pitomnik
(51.1333°N, 71.6167°E)
Time: 22:34:19
(UTC+00:00)

deb Explorer IX - Pass Details

Date: 22 April 2024
Orbit: 513 x 891 km, 38.7° (Epoch: 21 May)

Event Time Altitude Azimuth Distance (km) Brightness Sun altitude
Rises 06:53:08 0° 237° (WSW) 3,396 ? 51.1°
Reaches altitude 10° 06:56:03 10° 224° (SW) 2,508 ? 51.1°
Maximum altitude 07:00:47 24° 172° (S) 1,750 ? 51.2°
Drops below altitude 10° 07:05:39 10° 121° (ESE) 2,583 ? 51.2°
Sets 07:08:42 0° 108° (ESE) 3,519 ? 51.3°
